This demonstration page uses our WeatherBlox Daily Observations layout. Learn more.

Left ArrowRight Arrow

41.86663, -103.66717

Hourly Observations for April 25, 2016

Temp ( °F °C ) Dew Point ( °F °C ) Humidity (%) Winds ( mph kmh ) Pressure ( in mb ) Visibility ( mi km ) Precip ( " mm )
12:53 am 00:53 Clear 38 3.3 34 1.1 86 86 WNW 9 15 29.75 1008 10 16 N/A
1:53 am 01:53 Clear 38 3.3 34 1.1 86 86 W 9 15 29.75 1008 10 16 N/A
2:53 am 02:53 Clear 34 1.1 32 undefined 92 92 NW 6 9 29.77 1008 10 16 N/A
3:53 am 03:53 Clear 34 1.1 32 undefined 92 92 NW 8 13 29.75 1007 10 16 N/A
4:53 am 04:53 Clear 34 1.1 31 -0.6 89 89 WNW 7 11 29.74 1007 10 16 N/A
5:53 am 05:53 Clear 34 1.1 31 -0.6 89 89 NW 6 9 29.77 1008 10 16 N/A
6:53 am 06:53 Sunny 37 2.8 34 1.1 89 89 NW 3 6 29.79 1009 10 16 N/A
7:53 am 07:53 Sunny 42 5.6 37 2.8 82 82 NW 9 15 29.78 1008 10 16 N/A
8:53 am 08:53 Sunny 46 7.8 37 2.8 71 71 NW 8 13 29.78 1008 10 16 N/A
9:53 am 09:53 Sunny 51 10.6 38 3.3 61 61 VRB 6 9 29.74 1007 10 16 N/A
10:53 am 10:53 Sunny 56 13.3 40 4.4 55 55 NW 10 17 29.73 1007 10 16 N/A
11:53 am 11:53 Sunny 60 15.6 41 5 50 50 WNW 8 13 29.71 1006 10 16 N/A
12:53 pm 12:53 Sunny 62 16.7 41 5 46 46 VRB 6 9 29.69 1005 10 16 N/A
1:53 pm 13:53 Sunny 64 17.8 42 5.6 45 45 S 7 11 29.66 1004 10 16 N/A
2:53 pm 14:53 Mostly Sunny 65 18.3 41 5 42 42 SSW 7 11 29.66 1004 10 16 N/A
3:53 pm 15:53 Sunny 63 17.2 39 3.9 41 41 SSE 7 11 29.64 1004 10 16 N/A
4:53 pm 16:53 Mostly Sunny 66 18.9 41 5 40 40 SSE 12 19 29.62 1003 10 16 N/A
5:53 pm 17:53 Partly Cloudy 64 17.8 40 4.4 41 41 E 16 26 29.61 1003 10 16 N/A
6:53 pm 18:53 Mostly Cloudy 60 15.6 40 4.4 47 47 NE 18 30 29.62 1003 10 16 N/A
7:53 pm 19:53 Cloudy 59 15 39 3.9 48 48 NE 22 35 29.62 1003 10 16 N/A
8:20 pm 20:20 Mostly Cloudy with Nearby Thunderstorms 57 14 39 4 51 51 NE 25 41 29.53 1000 10 16 N/A
8:29 pm 20:29 Partly Cloudy with Thunderstorms 58 14.4 39 3.9 50 50 NE 21 33 29.56 1001 10 16 N/A
8:53 pm 20:53 Mostly Cloudy with Light Thunderstorms 57 13.9 39 3.9 51 51 W 10 17 29.65 1004 10 16 N/A
9:53 pm 21:53 Cloudy with Light Thunderstorms 50 10 42 5.6 74 74 N 12 19 29.70 1006 9 14 0.51 12.95
10:09 pm 22:09 Cloudy with Nearby Thunderstorms 49 9.4 43 6.1 80 80 NNE 10 17 29.68 1005 3 5 0.11 2.79
10:40 pm 22:40 Cloudy with Rain 48 9 43 6 82 82 NE 16 26 29.71 1006 5 8 N/A
10:53 pm 22:53 Cloudy with Light Rain 47 8.3 42 5.6 83 83 NNE 20 31 29.68 1005 7 11 0.19 4.83
11:53 pm 23:53 Cloudy with Light Rain 45 7.2 40 4.4 83 83 NE 26 43 29.65 1004 10 16 N/A

Powered by AerisWeather